Overview Statistics Trail Chart Weather Telemetry Raw packets
 

This is the latest recevied weather packets stored in our database for station/object SV2RCS-13. If no packets are shown the sender has not sent any weather packets the latest 10 day(s).

<< 2 3 4 5 6 7 8 >>
Time Temp. Humidity Pressure Rain* Wind** Luminosity Snow
1788350958 31.11° C 26% 1012.1 hPa - - - -
1788350358 31.11° C 26% 1012.4 hPa - - - -
1788349759 31.11° C 27% 1012.6 hPa - - - -
1788349159 30.56° C 26% 1012.5 hPa - - - -
1788348559 30.56° C 26% 1012.8 hPa - - - -
1788347958 30.56° C 26% 1013 hPa - - - -
1788347359 30.56° C 26% 1013.1 hPa - - - -
1788346758 31.11° C 25% 1013.1 hPa - - - -
1788346159 31.67° C 26% 1013.1 hPa - - - -
1788345558 31.11° C 28% 1013.4 hPa - - - -
1788344958 31.11° C 27% 1013.4 hPa - - - -
1788344358 31.11° C 26% 1013.6 hPa - - - -
1788343758 32.22° C 26% 1013.5 hPa - - - -
1788343158 31.67° C 28% 1013.8 hPa - - - -
1788342558 32.22° C 26% 1013.6 hPa - - - -
1788341959 33.89° C 19% 1013.3 hPa - - - -
1788341358 35.56° C 18% 1013.1 hPa - - - -
1788340759 35° C 18% 1013.3 hPa - - - -
1788340158 33.89° C 19% 1013.7 hPa - - - -
1788339558 35.56° C 16% 1013.5 hPa - - - -
1788338958 35° C 19% 1013.6 hPa - - - -
1788338359 35° C 19% 1013.5 hPa - - - -
1788337758 34.44° C 20% 1013.6 hPa - - - -
1788337159 32.78° C 25% 1014.1 hPa - - - -
1788336559 33.89° C 20% 1013.7 hPa - - - -

* Rain since midnight (hover to see other rain measurements)
** Current wind speed in m/s (hover to see current wind gust speed)